Погода в Воркуте

Погода в Воркуте : погода сейчас, прогноз погоды и архив. Всё, что Вы хотите узнать о погоде в Воркуте!

Хотите узнать прогноз погоды в Воркуте? Тогда Вам сюда: Погода в Воркуте

Поиск расширенной информации на нашем сайте:

Другие новости

Новости СМИ2

Главная страница сайта

Новости сайта

03.07.2017

Напоминаем, что на нашем специализированном сайте Метеоцентр.Азия вы можете получить высокодетализированные автоматические прогнозы погоды по пунктам России, СНГ и мира в авиационном формате (включающие направление и скорость ветра, видимость, явления погоды, количество и форму облачности, нижнюю и верхнюю границу облачности).

Рекомендуем: Отрасли промышленности http://industry-portal24.ru

Погода в Воркуте - сегодня

Время (UTC), дата Ветер
(°,м/с) 
Видим.   Явления Облачность Т
(°С)
Тd
(°С)
f(%) Тe
(°С)
Pmin
(гПа)
dP
(гПа)
Po
(мм)
O2
(г/м3)
Тmin Tmax R s Состояние
почвы
09 20.08.17 160 (Ю) 10 км    10/0 средняя, верхняя 
[Ac As|Ci fib]
+13.6 +4.5 54 +15  1013.1  -1.6  744  285           
12 20.08.17 180 (Ю) 10 км    10/0 средняя, верхняя 
[Ac As|Ci fib]
+14.8 +7.1 60 +15  1011.9  -0.9  744  283           
15 20.08.17 170 (Ю) 10 км  слаб. дождь  10/0 средняя 
[As op]
+12 +10.1 88 +13  1010.8  -1.3  743  285    +15.6  0.0     
18 20.08.17 180 (Ю) 6000 м  слаб. дождь  10/10 150 м 
[Frnb]
+13.4 +12.7 96 +18  1010.2  -0.6  742  283           
21 20.08.17 210 (ЮЗ) 8000 м  слаб. дождь  10/10 150 м 
[Frnb]
+14.6 +14.2 97 +22  1008  -2  741  280           
00 21.08.17 180 (Ю) 8-11{13}  3800 м  дождь  10/10 120 м 
[Frnb]
+14.8 +14.6 99 +22  1003.9  -4  738  279           
03 21.08.17 240 (ЮЗ) 7-13{14}  10 км  {дождь}  10/10 500 м 
[Sc]
+16 +14.8 93 +24  1004.4  0.6  738  278  +11      влажная 
06 21.08.17 260 (З) 8-13{14}  10 км  {дождь}  9/8 800 м кучево-дожд., верхняя 
[Cb cap|Ci fib]
+16.8 +13.4 80 +22  1005.3  0.9  739  278           
09 21.08.17 270 (З) 11-16{17}  10 км    9/8 1080 м кучево-дожд., верхняя 
[Cb cap|Ci fib]
+18.2 +11 63 +21  1006.8  1.6  740  278           
12 21.08.17 290 (З) 11-16{18}  10 км    8/6 1200 м средняя, верхняя 
[Cu med, cong|Ac cast|Ci fib]
+18.6 +10.4 59 +20  1008.4  1.5  741  278           
15 21.08.17 260 (З) 8{16}  10 км    8/4 1000 м кучево-дожд., средняя, верхняя 
[Cb cap|Ac trans|Ci fib]
+16.4 +10.6 69 +18  1009.1  0.6  742  280    +19.1       
18 21.08.17 230 (ЮЗ) 4{11}  10 км  {ливн. осадки}  6/3 1000 м кучево-дожд., средняя 
[Cb cap|Ac As]
+12.2 +11.1 93 +15  1010.2  0.7  742  284           
21 21.08.17 240 (ЮЗ) 10 км    3/1 1000 м средняя 
[Sc|Ac trans]
+10.2 +9.6 96 +10  1011.7  1.5  743  287           
00 22.08.17 230 (ЮЗ) 10 км    10/0 средняя 
[Ac und]
+9.8 +9.2 96 +9  1013.6  1.8  745  288           
03 22.08.17 240 (ЮЗ) 10 км    10/6 330 м средняя 
[Sc|Ac und]
+10.7 +10.1 96 +11  1014.4  0.8  745  287  +9    0.6    влажная 
06 22.08.17 250 (З) 10 км    8/8 480 м кучево-дожд. 
[Cb cap]
+14.2 +11.4 83 +16  1015.5  1.4  746  284           
09 22.08.17 290 (З) 7{10}  10 км    10/8 660 м кучево-дожд., верхняя 
[Cb cap|Cc]
+14.3 +9.4 72 +14  996.3  1.2  732  278           
12 22.08.17 270 (З) 10 км    10/4 300 м кучево-дожд., средняя 
[Cb cap|Ac und]
+14.3 +10.1 76 +15  1017.2  0.5  748  284           
15 22.08.17 240 (ЮЗ) 10 км    10/0 средняя, верхняя 
[Ac As|Ci fib]
+13.5 +11 85 +17  1016.5  -0.9  747  285    +15.2       
18 22.08.17 250 (З) 10 км    10/0 средняя 
[Ac und]
+12.2 +10.9 92 +14  1015.8  -0.7  746  286           
21 22.08.17 230 (ЮЗ) 10 км    9/0 средняя, верхняя 
[Ac trans|Ci fib]
+11.6 +10.2 91 +13  1015.9  746  287           
00 23.08.17 тихо ()   10 км    10/10 120 м 
[Sc]
+11 +10.4 96 +13  1015.6  -0.3  746  287           
03 23.08.17 тихо ()   4300 м  дымка  10/10 120 м 
[Sc]
+11 +10.6 97 +13  1015.6  746  287  +10.8        влажная 
06 23.08.17 310 (СЗ) 9000 м  слаб. дождь  10/10 360 м 
[Sc]
+12.2 +11.4 95 +16  1015.5  746  286           
09 23.08.17 320 (СЗ) 10 км  слаб. дождь  10/10 150 м 
[Frnb]
+8.2 +7.6 96 +7  1017.4  1.6  747  291           
Время (UTC), дата Ветер
(°,м/с) 
Видим.   Явления Облачность Т
(°С)
Тd
(°С)
f(%) Тe
(°С)
Pmin
(гПа)
dP
(гПа)
Po
(мм)
O2
(г/м3)
Тmin Tmax R s Состояние
почвы

Для получения пояснительной информации подведите курсор к названию столбца.

ПОГОДА в Воркуте - архив

Всё, что Вы хотите узнать о погоде в Воркуте - удобно и подробно!

Выберите нужную дату (начиная с 1 января 2015* года) и нажмите кнопку "Найти".
Будут отображены архивные сводки погоды по пункту Воркута, начиная с указанной даты.


Отображать данные в формате CSV (для использования в таблицах Excel)


Внимание! Наш архив погоды предназначен исключительно для личного некоммерческого использования в познавательных целях. Если Вам необходимы официальные справки о состоянии погоды (для производственных, юридических, коммерческих и т.п. целей), обращайтесь в органы Росгидромета.

*Примечание: данная дата относится к архиву по метеостанциям СССР (Россия, СНГ, Балтия).
Архив по метеостанциям Зарубежной Европы и Азии (кроме Китая) хранится 10 дней, по другим регионам земного шара (Китай, Африка, Америка, Австралия, Океания) - 1 день.

Воркута - район местоположения метеостанции


Название, широта, долгота, высота метеостанции:
Воркута 67.5°ш. 64°д. 172 м над ур. моря [Российская Федерация]

Дополнительная информация

В oтличие oт бoльшинства пoгoдных сайтoв мы публикуем пoдрoбную метеoинфoрмацию в детальнoм прoфессиoнальнoм фoрмате.

Характеристики температуры и влажнoсти вoздуха измеряются на высoте 2 м в тени вдали oт зданий и деревьев.
Скoрoсть ветра измеряется на высoте 10 м (на урoвне рoста челoвека скoрoсть ветра ниже в 1.5-2 раза). Если метеoстанция нахoдится в гoрoде или в лесу, тo скoрoсть ветра занижена на 2-4 м/с пo сравнению с oткрытым местoм. Скoрoсть ветра над акватoриями крупных рек и oзёр, а также на вершинах хoлмoв на 2-5 м/с выше, чем в oбычных услoвиях.
Атмoсфернoе давление в разных тoчках местнoсти мoжет значительнo oтличаться oт давления на метеoстанции, в зависимoсти oт услoвий рельефа (при пoдъёме на 10 м давление пoнижается примернo на 1 мм рт.ст.).